Notices

What's New in latest Release from April 7th, 2021:

- Updated Glossary, including Speed of Maximum Gust, and Total Hourly Precipitation

- Updated national and regional climate services offices contacts and prices information

- Addition of station inventory lists for 1981-2010, 1971-2000, and 1961-1990 Normals.

If you haven't already, please take our survey and provide feedback about our website: https://eccc.sondage-survey.ca/f/LanguageSelection.aspx?s=442ca660-fcf1-47c0-95a9-59707d6fd709

Hourly Data Report for December 09, 2018

CARBERRY CS
MANITOBA
Current Station Operator: ECCC - MSC

49°54'20.900" N
99°21'26.800" W
383.50 m
5010547
71170
WZE

Download Data

Hourly Data (December 2018)
Hourly Data Report for December 9, 2018
TIME
LST
Temp Definition
°C
Dew Point Definition
°C
Rel Hum Definition
%
Precip. Amount Definition
mm

Wind Dir Definition
10's deg

Wind Spd Definition
km/h
Visibility Definition
km
Stn Press Definition
kPa
Hmdx Definition


Wind Chill Definition


Weather Definition


00:00 -16.3 -18.9 80 0.0 26 16   97.62   -25 LegendNANA
01:00 -16.8 -19.3 81 0.0 25 13   97.63   -25 LegendNANA
02:00 -17.4 -19.9 81 0.0 26 17   97.64   -26 LegendNANA
03:00 -17.7 -20.5 79 0.0 26 17   97.67   -27 LegendNANA
04:00 -17.1 -19.7 80 0.0 25 13   97.68   -25 LegendNANA
05:00 -16.7 -19.5 79 0.0 25 13   97.66   -24 LegendNANA
06:00 -16.4 -19.2 79 0.0 25 13   97.67   -24 LegendNANA
07:00 -15.8 -18.7 78 0.0 25 15   97.68   -24 LegendNANA
08:00 -15.2 -18.2 78 0.0 25 19   97.68   -24 LegendNANA
09:00 -15.4 -18.7 76 0.0 26 22   97.71   -25 LegendNANA
10:00 -14.2 -18.1 73 0.0 25 16   97.71   -22 LegendNANA
11:00 -11.7 -16.1 70 0.0 26 23   97.73   -21 LegendNANA
12:00 -8.8 -13.6 68 0.0 26 27   97.67   -18 LegendNANA
13:00 -7.4 -13.1 64 0.0 25 21   97.61   -15 LegendNANA
14:00 -6.9 -12.9 62 0.0 25 16   97.54   -13 LegendNANA
15:00 -6.7 -12.2 65 0.0 25 19   97.49   -14 LegendNANA
16:00 -6.7 -11.8 67 0.0 25 18   97.49   -13 LegendNANA
17:00 -7.7 -11.4 74 0.0 25 15   97.47   -14 LegendNANA
18:00 -7.6 -11.1 76 0.0 26 19   97.44   -15 LegendNANA
19:00 -7.8 -11.1 77 0.0 24 13   97.38   -14 LegendNANA
20:00 -9.9 -12.4 82 0.0 22 13   97.36   -16 LegendNANA
21:00 -9.9 -12.1 84 0.0 23 15   97.29   -17 LegendNANA
22:00 -9.7 -12.0 83 0.0 23 16   97.20   -17 LegendNANA
23:00 -8.5 -11.1 81 0.0 24 18   97.13   -16 LegendNANA

Notes on Data Quality.

Legend

  • E = Estimated
  • M = Missing
  • NA = Not Available*
  • [empty] = Indicates an unobserved value
Date modified: